[[{"header":{"parameterUnit":"m.s-1","parameterCategory":1,"la1":30.2991,"la2":30.254,"lo1":-89.0895,"lo2":-89.0444,"dy":0.0017,"dx":0.0017,"nx":28,"ny":28,"refTime":"2023-08-12T03:00:00:Z","depth":0,"parameterNumber":2,"parameterNumberName":"U-component_of_WINDS"},"data":[0,0,0,0,0,0,0,0,0,0,0,0,0,0,0,0,0,0,0,0,0,0,0,0,0,0,0,0,0,0,0,0,0,0,0,0,0,0,0,0,0,0,0,0,0,0,0,0,0,0,0,0,0,0,0,0,0,0,4.3583,4.3584,0,4.364,4.364,4.3641,4.3558,4.3555,4.3552,4.3549,4.3606,4.3611,4.3615,0,0,0,0,0,0,0,0,0,0,0,0,0,4.3402,4.3406,4.3583,4.3584,4.3585,4.3639,4.364,4.3641,4.3558,4.3555,4.3551,4.3548,4.3605,4.361,4.3615,0,0,0,0,0,0,0,0,0,0,0,0,0,4.3472,4.3407,4.3583,4.355,4.3548,4.3639,4.364,4.3641,4.3559,4.3554,4.355,4.3546,4.3603,4.361,4.3616,4.3743,0,0,4.3635,4.3638,0,0,0,0,0,0,0,0,4.3468,4.3479,4.3554,4.3552,4.355,4.3587,4.3597,4.3675,4.356,4.3555,4.3549,4.3544,4.3604,4.361,4.363,4.3745,4.3748,4.3636,4.364,4.3642,4.3644,0,0,0,0,0,0,0,4.3463,4.3476,4.3605,4.3555,4.3553,4.3531,4.3537,4.3612,4.3603,4.3555,4.3549,4.3557,4.3601,4.3624,4.363,4.3749,4.3636,4.3641,4.3645,4.3648,4.3966,4.3971,0,0,0,0,0,0,4.3463,4.3472,4.3604,4.3607,4.3497,4.3538,4.3544,4.358,4.3602,4.3601,4.356,4.3552,4.3615,4.3623,4.3632,4.3778,4.3642,4.3648,4.3652,4.3962,4.3967,4.3972,0,0,0,0,0,0,4.3459,4.3475,4.3601,4.3538,4.3553,4.3546,4.3587,4.3583,4.3605,4.3606,4.3604,4.3585,4.3612,4.3623,4.3715,4.3779,4.3651,4.3657,4.3956,4.3963,4.397,4.4074,0,0,0,0,0,0,4.3454,4.3474,4.3523,4.354,4.3556,4.3684,4.3591,4.3587,4.3616,4.3607,4.3628,4.3628,4.3609,4.3706,4.3721,4.3786,4.3662,4.395,4.3959,4.3968,4.4065,4.4084,4.41,0,0,0,0,0,4.3448,4.3551,4.3526,4.3543,4.3617,4.3688,4.3697,4.3674,4.3622,4.367,4.367,4.3627,4.3771,4.3716,4.3732,4.38,4.3946,4.3957,4.3967,4.4057,4.408,4.41,0,0,0,0,0,0,4.3543,4.3553,4.3525,4.3637,4.3662,4.3674,4.3734,4.37,4.3741,4.373,4.3699,4.3705,4.3802,4.3811,4.375,4.3922,4.3849,4.3864,4.3912,4.3934,4.3952,4.3946,4.3667,0,0,0,0,0,4.3577,4.3635,4.364,4.3738,4.3752,4.3741,4.3771,4.3751,4.3776,4.3786,4.3793,4.3818,4.3868,4.3902,4.3949,4.4067,4.4068,4.4121,4.4139,4.4153,4.4165,4.4224,4.4246,4.4007,4.4007,4.4006,0,0,4.3648,4.3661,4.3699,4.3757,4.3774,4.3833,4.3751,4.3817,4.3859,4.3796,4.3881,4.3888,4.3914,4.4018,4.4064,4.4028,4.4232,4.4167,4.4178,4.4182,4.4237,4.426,4.428,4.4014,4.4013,4.4011,0,0,4.3806,4.3823,4.3904,4.3923,4.3949,4.3941,4.3961,4.3977,4.3978,4.4064,4.4016,4.4066,4.4155,4.4174,4.4195,4.4358,4.4319,4.4374,4.4465,4.4523,4.4542,4.4558,4.4613,4.4633,4.4387,4.4387,4.4387,0,4.3891,4.3977,4.3951,4.4019,4.4045,4.399,4.4071,4.409,4.4131,4.4149,4.4108,4.4215,4.423,4.4335,4.4374,4.4395,4.4414,4.4371,4.4541,4.4558,4.4573,4.4624,4.4645,4.4393,4.4393,4.4392,4.4391,0,4.4078,4.4139,4.4201,4.424,4.4273,4.4348,4.4331,4.4368,4.4345,4.434,4.4426,4.4441,4.4488,4.4512,4.4491,4.4614,4.459,4.4547,4.4472,4.4602,4.465,4.467,4.4402,4.44,4.4398,4.4397,0,0,4.4298,4.4319,4.4342,4.4358,4.4382,4.4427,4.4499,4.4544,4.4574,4.4604,4.4661,4.4736,4.4694,4.4718,4.4698,4.475,4.4873,4.4698,4.4698,4.4727,4.5005,4.5036,4.5059,4.4848,4.4851,4.4854,4.5002,0,4.4452,4.4574,4.4551,4.467,4.4723,4.4671,4.4732,4.4753,4.475,4.4795,4.4792,4.4844,4.4787,4.48,4.4849,4.4847,4.4927,4.4837,4.4898,4.49,4.4889,4.5085,4.5118,4.5256,4.502,4.5024,4.5026,0,4.4649,4.4684,4.4807,4.4819,4.4841,4.4897,4.4934,4.4978,4.5,4.4994,4.502,4.499,4.5058,4.4986,4.5078,4.5017,4.5041,4.5044,4.5048,4.5051,4.4969,4.5089,4.53,4.532,4.5056,4.5053,4.5051,0,4.4792,4.487,4.4953,4.4968,4.4986,4.5025,4.5034,4.5051,4.5079,4.5112,4.5129,4.517,4.5192,4.5224,4.5205,4.5154,4.5299,4.5226,4.5294,4.5295,4.5325,4.5323,4.554,4.5347,4.5346,4.5346,4.5345,0,4.4965,4.5041,4.5016,4.5067,4.5151,4.5123,4.5206,4.5209,4.5225,4.5274,4.5232,4.5279,4.5252,4.5297,4.5282,4.5359,4.537,4.5366,4.536,4.5368,4.5368,4.5381,4.5369,4.5351,4.535,4.5349,4.5348,0,4.5137,4.5125,4.521,4.5219,4.5223,4.5284,4.529,4.5337,4.5331,4.5393,4.5406,4.5397,4.5446,4.5431,4.5486,4.5475,4.5571,4.5556,4.5564,4.5559,4.5626,4.5619,4.5856,4.5885,4.5677,4.5679,4.568,0,4.5247,4.5304,4.5318,4.5348,4.5359,4.5408,4.5435,4.541,4.544,4.5467,4.551,4.5556,4.5591,4.5672,4.567,4.571,4.5693,4.5773,4.5698,4.5703,4.5689,4.5685,4.5689,4.5787,4.579,4.5792,4.5793,0,4.5442,4.5432,4.5472,4.551,4.5543,4.5572,4.5597,4.5623,4.56,4.5635,4.5685,4.5712,4.5766,4.5811,4.5847,4.5855,4.582,4.5817,4.5834,4.5841,4.5841,4.5838,4.5601,4.5811,4.5809,4.5808,4.5807,4.5806,4.5584,4.5631,4.5647,4.5692,4.5708,4.5732,4.5774,4.5773,4.5814,4.5855,4.5838,4.5894,4.5912,4.5956,4.5969,4.6012,4.5981,4.6007,4.6013,4.6019,4.6026,4.5837,4.6019,4.6019,4.6018,4.6018,4.6017,0,4.5773,4.578,4.5822,4.5857,4.5893,4.5856,4.5881,4.5913,4.5963,4.5982,4.6017,4.6072,4.6115,4.6115,4.6155,4.6189,4.6173,4.62,4.6195,4.6197,4.6053,4.6033,4.6211,4.6211,4.6211,4.6211,4.6211,4.6211,4.5875,4.5951,4.5943,4.6025,4.6032,4.6086,4.6103,4.6124,4.6138,4.6202,4.6237,4.6236,4.6247,4.6287,4.6323,4.6322,4.6337,4.6369,4.6362,4.6227,4.6208,4.6189,4.6169,4.6374,4.6374,4.6501,4.6502,4.6503]},{"header":{"parameterUnit":"m.s-1","parameterCategory":1,"la1":30.2991,"la2":30.254,"lo1":-89.0895,"lo2":-89.0444,"dy":0.0017,"dx":0.0017,"nx":28,"ny":28,"refTime":"2023-08-12T03:00:00:Z","depth":0,"parameterNumber":3,"parameterNumberName":"V-component_of_WINDS"},"data":[0,0,0,0,0,0,0,0,0,0,0,0,0,0,0,0,0,0,0,0,0,0,0,0,0,0,0,0,0,0,0,0,0,0,0,0,0,0,0,0,0,0,0,0,0,0,0,0,0,0,0,0,0,0,0,0,0,0,4.5318,4.5319,0,4.542,4.5422,4.5423,4.5403,4.5401,4.5399,4.5398,4.5497,4.5501,4.5506,0,0,0,0,0,0,0,0,0,0,0,0,0,4.51,4.5104,4.5318,4.532,4.5321,4.542,4.5422,4.5423,4.5403,4.5401,4.5399,4.5397,4.5496,4.5501,4.5506,0,0,0,0,0,0,0,0,0,0,0,0,0,4.5198,4.5106,4.5318,4.5323,4.5325,4.542,4.5422,4.5423,4.5404,4.5401,4.5398,4.5396,4.5494,4.55,4.5507,4.5602,0,0,4.5527,4.553,0,0,0,0,0,0,0,0,4.5192,4.5206,4.5321,4.5323,4.5325,4.5396,4.5381,4.5483,4.5405,4.5374,4.5398,4.5395,4.5466,4.5474,4.5499,4.5607,4.5611,4.5527,4.5531,4.5534,4.5536,0,0,0,0,0,0,0,4.5186,4.5201,4.5358,4.5323,4.5325,4.5318,4.5329,4.54,4.5433,4.5376,4.5375,4.5388,4.5466,4.5493,4.5501,4.5612,4.5527,4.5533,4.5537,4.554,4.5801,4.5803,0,0,0,0,0,0,4.5178,4.5196,4.5355,4.5362,4.5251,4.5325,4.5337,4.5376,4.5433,4.5439,4.539,4.5386,4.5483,4.5494,4.5505,4.5619,4.5534,4.554,4.5544,4.5798,4.5801,4.5805,0,0,0,0,0,0,4.5173,4.5192,4.5351,4.5278,4.5298,4.5331,4.5376,4.538,4.5407,4.5443,4.5448,4.5412,4.5482,4.5496,4.5578,4.5622,4.5543,4.5549,4.5794,4.5799,4.5803,4.5848,0,0,0,0,0,0,4.5167,4.5191,4.5229,4.528,4.5302,4.5424,4.5378,4.5383,4.5419,4.5415,4.5465,4.5471,4.548,4.5568,4.5584,4.5629,4.5554,4.579,4.5796,4.5801,4.5842,4.5853,4.5862,0,0,0,0,0,4.5159,4.5237,4.5231,4.525,4.5351,4.5427,4.544,4.5451,4.5422,4.546,4.5483,4.5469,4.5615,4.5577,4.5595,4.5642,4.5787,4.5794,4.5801,4.5838,4.5851,4.5862,0,0,0,0,0,0,4.5189,4.5243,4.5238,4.5334,4.5376,4.5424,4.5471,4.5465,4.5515,4.5509,4.5519,4.553,4.5613,4.5636,4.5593,4.5736,4.5697,4.5707,4.5719,4.5731,4.5741,4.5733,4.556,0,0,0,0,0,4.5207,4.5266,4.531,4.539,4.5412,4.5438,4.5472,4.5477,4.552,4.5537,4.5567,4.5608,4.5662,4.5698,4.5751,4.5846,4.5855,4.5887,4.5897,4.5905,4.5914,4.5964,4.5978,4.5827,4.5827,4.5827,0,0,4.5244,4.5281,4.5318,4.5397,4.5431,4.549,4.5453,4.5518,4.5561,4.5547,4.5626,4.5649,4.5695,4.5784,4.5824,4.5805,4.5958,4.5914,4.592,4.5924,4.5972,4.5986,4.5999,4.5831,4.5831,4.583,0,0,4.5342,4.5377,4.5447,4.5481,4.5533,4.5549,4.5566,4.5615,4.5629,4.571,4.57,4.575,4.5845,4.5878,4.5907,4.6016,4.6005,4.6033,4.6085,4.6133,4.6145,4.6155,4.6193,4.6206,4.6042,4.6042,4.6042,0,4.5381,4.5472,4.5484,4.5549,4.5583,4.5574,4.5644,4.5676,4.5741,4.5764,4.5743,4.586,4.5891,4.5986,4.6013,4.6037,4.6055,4.6027,4.6143,4.6153,4.6163,4.6199,4.6213,4.6045,4.6044,4.6044,4.6044,0,4.5516,4.5579,4.5629,4.5694,4.5734,4.5801,4.5821,4.586,4.5861,4.5879,4.596,4.5996,4.6055,4.6078,4.608,4.6173,4.616,4.6141,4.61,4.618,4.6214,4.6228,4.6049,4.6048,4.6047,4.6046,0,0,4.5635,4.5706,4.5724,4.5752,4.5807,4.5855,4.5921,4.598,4.6012,4.6057,4.6111,4.6191,4.6173,4.6206,4.6211,4.6254,4.6335,4.6229,4.623,4.6246,4.6439,4.6452,4.6468,4.6329,4.6331,4.6333,4.6434,0,4.5737,4.5855,4.5868,4.5972,4.6029,4.6021,4.6078,4.6117,4.6135,4.6185,4.6204,4.626,4.6233,4.6253,4.6295,4.6317,4.6374,4.631,4.6377,4.6379,4.6364,4.6486,4.65,4.6594,4.6447,4.645,4.6451,0,4.5872,4.5922,4.6033,4.6079,4.6103,4.6155,4.6209,4.6257,4.63,4.631,4.6347,4.6346,4.6411,4.6369,4.6458,4.6414,4.6442,4.6457,4.6461,4.6466,4.6419,4.6493,4.6624,4.6637,4.6472,4.6471,4.6469,0,4.5945,4.604,4.6119,4.6143,4.62,4.6236,4.626,4.6301,4.6335,4.6382,4.6404,4.6457,4.6486,4.6526,4.6539,4.6508,4.6627,4.6586,4.6635,4.6635,4.666,4.6658,4.6796,4.668,4.668,4.668,4.6679,0,4.6057,4.6125,4.6152,4.62,4.6275,4.6287,4.636,4.6383,4.6419,4.647,4.6465,4.6512,4.6527,4.6575,4.6585,4.6656,4.667,4.6678,4.668,4.6678,4.6677,4.6696,4.6689,4.6683,4.6682,4.6682,4.6681,0,4.6152,4.6173,4.6258,4.6304,4.6318,4.637,4.6409,4.6454,4.6472,4.6536,4.6551,4.6578,4.6635,4.6652,4.6721,4.6727,4.681,4.6806,4.6796,4.6796,4.6843,4.6837,4.6996,4.7017,4.6889,4.689,4.6891,0,4.6221,4.6273,4.6325,4.636,4.6386,4.6442,4.6477,4.649,4.6527,4.6579,4.6617,4.6674,4.672,4.6812,4.6836,4.6888,4.6884,4.6937,4.6892,4.6888,4.6883,4.688,4.6884,4.6945,4.6946,4.6947,4.6948,0,4.6341,4.6349,4.6401,4.6456,4.6498,4.6542,4.6584,4.6612,4.6631,4.6672,4.6731,4.6767,4.6837,4.6893,4.6945,4.6968,4.6961,4.6962,4.6976,4.6974,4.6965,4.6969,4.6817,4.6958,4.6957,4.6956,4.6956,4.6955,4.6424,4.6469,4.6513,4.657,4.6604,4.6643,4.6687,4.671,4.6761,4.682,4.6824,4.6888,4.6928,4.6998,4.7024,4.7072,4.7056,4.7077,4.7082,4.7086,4.7089,4.6959,4.7082,4.7081,4.7081,4.7081,4.7081,0,4.6542,4.657,4.6623,4.6682,4.6727,4.6718,4.6763,4.68,4.6857,4.6896,4.6942,4.7009,4.7062,4.7091,4.7144,4.7177,4.7175,4.7191,4.7187,4.7192,4.7101,4.7083,4.7191,4.7191,4.7191,4.7191,4.7191,4.7191,4.6609,4.6685,4.6698,4.6789,4.6815,4.6879,4.6906,4.6941,4.6972,4.7047,4.7093,4.7112,4.7146,4.7201,4.7249,4.7256,4.7275,4.7292,4.7297,4.7211,4.7199,4.7188,4.7172,4.7297,4.7297,4.7384,4.7385,4.7386]}]]